Bridgeport, CT

2:43 PM EDT on May 24, 2017 (GMT -0400)
Sikorsky Memorial

Weather History for KBDR - March, 2012

Change the Weather History Date:

Friday, March 23, 2012

  Actual Average Record
Temperature  
Mean Temperature 62 °F 41 °F  
Max Temperature 71 °F 49 °F 71 °F (2012)
Min Temperature 52 °F 33 °F 19 °F (1959)
Degree Days  
Heating Degree Days 3 24  
Month to date heating degree days 399 620  
Since 1 July heating degree days 3512 4507  
Cooling Degree Days 0 0  
Month to date cooling degree days 0 0  
Year to date cooling degree days 0 0  
Growing Degree Days 11 (Base 50)    
Moisture  
Dew Point 47 °F    
Average Humidity 66    
Maximum Humidity 89    
Minimum Humidity 43    
Precipitation  
Precipitation 0.00 in 0.14 in 1.18 in (1950)
Month to date precipitation 0.66 2.96  
Year to date precipitation 5.22 8.85  
Snow  
Snow 0.00 in 0.10 in 2.00 in (2005)
Month to date snowfall T 4.3  
Since 1 July snowfall 13.6 25.9  
Snow Depth 0.00 in    
Sea Level Pressure  
Sea Level Pressure 30.06 in    
Wind  
Wind Speed 6 mph (South)    
Max Wind Speed 17 mph    
Max Gust Speed 23 mph    
Visibility 9 miles    
Events      
T = Trace of Precipitation, MM = Missing Value Source: NWS Daily Summary

Daily Weather History Graph

Daily Weather History Graph

Search for Another Location

Airport or City:

Trip Planner

Search our weather history database for the weather conditions in past years. The results will help you decide how hot, cold, wet, or windy it might be!

Date:

Astronomy

Mar. 23, 2012 Rise Set
Actual Time 6:50 AM EDT 7:08 PM EDT
Civil Twilight 6:22 AM EDT 7:35 PM EDT
Nautical Twilight 5:50 AM EDT 8:08 PM EDT
Astronomical Twilight 5:17 AM EDT 8:41 PM EDT
Moon 6:56 AM EDT (3/23) 8:29 PM EDT (3/23)
Length of Visible Light 13h 13m
Length of Day
12h 18m
New Moon, 1% of the Moon is Illuminated
Mar 23
New Moon
Mar 30
First Quarter
Apr 6
Full
Apr 13
Last Quarter
Apr 21
New

Hourly Weather History & Observations

Time (EDT) Temp. Dew Point Humidity Pressure Visibility Wind Dir Wind Speed Gust Speed Precip Events Conditions
12:52 AM 55.0 °F 50.0 °F 83% 30.06 in 6.0 mi SW 5.8 mph - N/A   Haze
1:52 AM 54.0 °F 48.9 °F 83% 30.05 in 7.0 mi SW 3.5 mph - N/A   Clear
2:52 AM 55.9 °F 51.1 °F 84% 30.04 in 7.0 mi SW 3.5 mph - N/A   Clear
3:52 AM 55.0 °F 51.1 °F 86% 30.04 in 6.0 mi Calm Calm - N/A   Clear
4:52 AM 54.0 °F 50.0 °F 86% 30.04 in 6.0 mi NNE 4.6 mph - N/A   Clear
5:52 AM 54.0 °F 50.0 °F 86% 30.05 in 6.0 mi North 4.6 mph - N/A   Clear
6:52 AM 55.9 °F 52.0 °F 87% 30.06 in 4.0 mi North 4.6 mph - N/A   Clear
7:52 AM 61.0 °F 54.0 °F 78% 30.08 in 10.0 mi North 10.4 mph - N/A   Mostly Cloudy
8:52 AM 64.0 °F 53.1 °F 67% 30.09 in 10.0 mi NNE 6.9 mph - N/A   Mostly Cloudy
9:52 AM 69.8 °F 53.6 °F 56% 30.10 in 10.0 mi NE 12.7 mph - N/A   Clear
10:52 AM 63.0 °F 48.9 °F 60% 30.11 in 10.0 mi East 4.6 mph - N/A   Overcast
11:52 AM 66.9 °F 46.9 °F 49% 30.11 in 10.0 mi ENE 8.1 mph - N/A   Overcast
12:52 PM 62.1 °F 50.0 °F 65% 30.11 in 10.0 mi ESE 11.5 mph - N/A   Overcast
1:52 PM 64.9 °F 41.0 °F 42% 30.09 in 10.0 mi SE 15.0 mph - N/A   Mostly Cloudy
2:52 PM 63.0 °F 45.0 °F 52% 30.09 in 10.0 mi ESE 8.1 mph - N/A   Scattered Clouds
3:52 PM 64.0 °F 45.0 °F 50% 30.06 in 10.0 mi ESE 6.9 mph - N/A   Clear
4:52 PM 66.0 °F 44.1 °F 45% 30.05 in 10.0 mi SSE 4.6 mph - N/A   Clear
5:52 PM 62.1 °F 45.0 °F 53% 30.04 in 10.0 mi SSW 3.5 mph - N/A   Clear
6:52 PM 59.0 °F 42.1 °F 53% 30.04 in 10.0 mi SW 5.8 mph - N/A   Clear
7:52 PM 57.0 °F 41.0 °F 55% 30.05 in 10.0 mi SW 5.8 mph - N/A   Clear
8:52 PM 57.0 °F 39.9 °F 53% 30.04 in 10.0 mi SW 4.6 mph - N/A   Clear
9:52 PM 55.0 °F 42.1 °F 62% 30.05 in 10.0 mi WSW 4.6 mph - N/A   Clear
10:52 PM 53.1 °F 42.1 °F 66% 30.04 in 10.0 mi WSW 5.8 mph - N/A   Clear
11:52 PM 53.1 °F 43.0 °F 69% 30.04 in 10.0 mi WSW 3.5 mph - N/A   Clear